Location: Kalberh�ni
(46.4610°N, 7.2453°E)
Time: 08:13:48
(UTC+00:00)

deb Kosmos-2227 - Pass Details

Date: 12 August 2022
Orbit: 774 x 865 km, 70.9° (Epoch: 26 September)

Event Time Altitude Azimuth Distance (km) Brightness Sun altitude
Rises 22:41:23 0° 338° (NNW) 3,330 ? -27.6°
Reaches altitude 10° 22:44:02 10° 348° (NNW) 2,410 ? -27.7°
Maximum altitude 22:49:01 34° 52° (NE) 1,349 ? -27.9°
Enters shadow 22:50:14 30° 78° (ENE) 1,439 ? -27.9°
